Location: Byhalia Creek
(34.8270°N, 89.8040°W)
Time: 20:40:28
(UTC+00:00)

Milstar 3 - Pass Details

Date: 22 April 2026
Orbit: 1097 x 5148 km, 28.2° (Epoch: 21 May)

Event Time Altitude Azimuth Distance (km) Brightness Sun altitude
Rises 03:55:15 0° 243° (WSW) 4,342 6.0 -34.7°
Reaches altitude 10° 03:57:42 10° 239° (WSW) 3,591 5.5 -35.0°
Enters shadow 04:02:47 40° 217° (SW) 2,458 4.3 -35.6°
Exits shadow 04:20:08 18° 92° (E) 5,512 6.0 -37.6°
Drops below altitude 10° 04:24:07 10° 89° (E) 6,577 6.5 -38.0°
Sets 04:30:39 0° 87° (E) 8,221 7.1 -38.6°
